Hourly Data Report for October 17, 2013

All times are specified in Local Standard Time (LST). Add 1 hour to adjust for Daylight Saving Time where and when it is observed.

POND INLET A
NUNAVUT

72°41'22.000" N
77°58'08.000" W
61.60 m
2403206
71095
YIO

Download Data

Hourly Data (October 2013)
Hourly Data Report for October 17, 2013
Temp Definition
°C
Dew Point Temp Definition
°C
Rel Hum Definition
%
Wind Dir Definition
10's deg

Wind Spd Definition
km/h
Visibility Definition
km
Stn Press Definition
kPa
Hmdx Definition


Wind Chill Definition


Weather Definition


TIME
00:00 Legend Double Dagger -0.7 -3.4 82 7 5 16.1 100.10   -2 LegendNANA
01:00 Legend Double Dagger 0.0 -4.1 74   0 16.1 100.12     LegendNANA
02:00 Legend Double Dagger -0.2 -3.8 77 LegendMM 4 16.1 100.14   -1 LegendNANA
03:00 Legend Double Dagger -0.1 -4.0 75 6 8 16.1 100.15   -3 LegendNANA
04:00 Legend Double Dagger -0.1 -4.0 75 8 8 16.1 100.17   -3 LegendNANA
05:00 Legend Double Dagger 0.1 -5.0 69 11 9 16.1 100.17     LegendNANA
06:00 Legend Double Dagger -1.7 -5.2 77 12 11 16.1 100.18   -6 LegendNANA
07:00 Legend Double Dagger -1.2 -6.0 70 9 11 16.1 100.19   -5 LegendNANA
08:00 Legend Double Dagger -3.2 -7.1 75 14 15 16.1 100.24   -8 LegendNANA
09:00 Legend Double Dagger -3.6 -6.7 79 14 18 16.1 100.26   -9 LegendNANA
10:00 Legend Double Dagger -1.6 -5.8 73 14 18 16.1 100.26   -7 LegendNANA
11:00 Legend Double Dagger -1.7 -5.7 74 14 13 16.1 100.29   -6 LegendNANA
12:00 Legend Double Dagger -0.4 -5.4 69 8 5 16.1 100.33   -2 LegendNANA
13:00 Legend Double Dagger -0.4 -4.5 74 16 5 16.1 100.36   -2 LegendNANA
14:00 Legend Double Dagger -0.4 -4.1 76 LegendMM 4 16.1 100.40   -2 LegendNANA
15:00 Legend Double Dagger -1.1 -3.2 86 21 8 16.1 100.44   -4 LegendNANA
16:00 Legend Double Dagger -0.6 -4.7 74   0 16.1 100.47     LegendNANA
17:00 Legend Double Dagger -1.2 -5.1 75   0 16.1 100.48     LegendNANA
18:00 Legend Double Dagger -2.0 -5.3 78 9 5 16.1 100.50   -4 LegendNANA
19:00 Legend Double Dagger -1.9 -5.0 80 LegendMM 4 16.1 100.51   -3 LegendNANA
20:00 Legend Double Dagger -2.2 -6.0 75 14 11 16.1 100.53   -6 LegendNANA
21:00 Legend Double Dagger -3.9 -7.1 79 14 17 16.1 100.53   -10 LegendNANA
22:00 Legend Double Dagger -2.6 -6.7 74 12 15 16.1 100.56   -8 LegendNANA
23:00 Legend Double Dagger -2.3 -6.0 76 13 9 16.1 100.54   -6 LegendNANA

Notes on Data Quality.

Legend

  • E = Estimated
  • M = Missing
  • NA = Not Available
  • ‡ = Partner data that is not subject to review by the National Climate Archives
Date modified: